Location: Cactus School
(34.5700°N, 118.0931°W)
Time: 08:09:12
(UTC-07:00)

Vanguard 2 - Pass Details

Date: 24 April 2024
Orbit: 553 x 2914 km, 32.9° (Epoch: 22 May)

Event Time Altitude Azimuth Distance (km) Brightness Sun altitude
Exits shadow 05:12:30 - 278° (W) 6,009 11.6 -11.7°
Reaches altitude 10° 05:15:14 10° 277° (W) 5,424 11.3 -11.2°
Maximum altitude 05:32:32 76° 196° (SSW) 2,959 10.4 -8.0°
Drops below altitude 10° 05:48:43 10° 114° (ESE) 5,115 12.5 -4.8°
Sets 05:52:12 0° 112° (ESE) 5,888 12.9 -4.2°
